Tracking 19575 objects as of 19-Feb-2019
HD Live streaming from Space Station
objects crossing your sky now

GLOBALSTAR M003

Track GLOBALSTAR M003 now!
10-day predictions
GLOBALSTAR M003 is classified as:


NORAD ID: 25165
Int'l Code: 1998-008D
Perigee: 1,628.8 km
Apogee: 1,640.0 km
Inclination: 52.0 °
Period: 118.8 minutes
Semi major axis: 8005 km
RCS: 2.2435 m2 (large)
Launch date: February 14, 1998
Source: Globalstar (GLOB)
Launch site: AIR FORCE EASTERN TEST RANGE (AFETR)
aabbcc
Your satellite tracking list
Your tracking list is empty




NASA's NSSDC Master Catalog

Two Line Element Set (TLE):
1 25165U 98008D   19049.66302115 -.00000078 +00000-0 +11870-3 0  9997
2 25165 052.0106 088.8137 0007003 315.0858 197.8863 12.12066507953054
Source of the keplerian elements: AFSPC